This demonstration page uses our WeatherBlox Daily Observations layout. Learn more.

Left ArrowRight Arrow

39.92423, -83.80882

Hourly Observations for September 16, 2020

Temp ( °F °C ) Dew Point ( °F °C ) Humidity (%) Winds ( mph kmh ) Pressure ( in mb ) Visibility ( mi km ) Precip ( " mm )
12:56 am 00:56 Clear 50 10 50 10 100 100 ESE 3 6 30.17 1022 10 16 N/A
1:56 am 01:56 Clear 47 8.3 47 8.3 100 100 ENE 3 6 30.16 1021 10 16 N/A
2:56 am 02:56 Clear 46 7.8 46 7.8 100 100 ENE 3 6 30.15 1021 10 16 N/A
3:56 am 03:56 Clear 47 8.3 47 8.3 100 100 ESE 3 6 30.14 1021 10 16 N/A
4:56 am 04:56 Clear 47 8.3 47 8.3 100 100 N N/A 30.13 1020 7 11 N/A
5:56 am 05:56 Mostly Clear 46 7.8 46 7.8 100 100 N N/A 30.12 1020 10 16 N/A
6:56 am 06:56 Clear 46 7.8 46 7.8 100 100 N N/A 30.13 1020 10 16 N/A
7:56 am 07:56 Sunny 46 7.8 46 7.8 100 100 N N/A 30.13 1020 9 14 N/A
8:56 am 08:56 Sunny 53 11.7 53 11.7 100 100 N N/A 30.13 1020 10 16 N/A
9:56 am 09:56 Sunny 60 15.6 58 14.4 93 93 N N/A 30.12 1020 10 16 N/A
10:56 am 10:56 Sunny 67 19.4 61 16.1 81 81 N N/A 30.11 1020 10 16 N/A
11:56 am 11:56 Mostly Sunny 70 21.1 60 15.6 71 71 SW 8 13 30.11 1020 10 16 N/A
12:56 pm 12:56 Sunny 71 21.7 58 14.4 63 63 VRB 3 6 30.10 1019 10 16 N/A
1:56 pm 13:56 Sunny 74 23.3 56 13.3 54 54 N N/A 30.09 1019 10 16 N/A
2:56 pm 14:56 Sunny 75 23.9 55 12.8 50 50 VRB 3 6 30.06 1018 10 16 N/A
3:56 pm 15:56 Sunny 76 24.4 58 14.4 54 54 SE 5 7 30.05 1018 10 16 N/A
4:56 pm 16:56 Sunny 76 24.4 57 13.9 52 52 S 6 9 30.04 1017 10 16 N/A
5:56 pm 17:56 Sunny 76 24.4 56 13.3 50 50 SSE 3 6 30.04 1017 10 16 N/A
6:56 pm 18:56 Sunny 70 21.1 58 14.4 66 66 N N/A 30.04 1017 10 16 N/A
7:56 pm 19:56 Clear 67 19.4 59 15 76 76 N N/A 30.05 1018 10 16 N/A
8:56 pm 20:56 Clear 64 17.8 58 14.4 81 81 SSW 5 7 30.06 1018 10 16 N/A
9:56 pm 21:56 Clear 60 15.6 58 14.4 93 93 N N/A 30.06 1018 10 16 N/A
10:56 pm 22:56 Clear 58 14.4 58 14.4 100 100 N N/A 30.06 1018 10 16 N/A
11:56 pm 23:56 Clear 56 13.3 56 13.3 100 100 N N/A 30.06 1018 10 16 N/A

Powered by AerisWeather